Location: *
(55.6049°S, 142.1985°W)
Time: 00:17:45
(UTC+00:00)

Cosmos 1766 Rocket - Pass Details

Date: 12 May 2021
Orbit: 606 x 632 km, 82.5° (Epoch: 23 June)

Event Time Altitude Azimuth Distance (km) Brightness Sun altitude
Rises 15:37:26 0° 191° (SSW) 2,957 6.8 -13.3°
Reaches altitude 10° 15:39:43 10° 189° (S) 2,038 6.0 -13.0°
Maximum altitude 15:44:14 70° 105° (ESE) 676 3.9 -12.4°
Drops below altitude 10° 15:48:39 10° 20° (NNE) 1,995 6.7 -11.8°
Sets 15:50:52 0° 17° (NNE) 2,889 7.5 -11.5°
